Location: Unspecified
(0.0000°N, 0.0000°E)
Time: 20:59:30
(UTC+00:00)

Envisat - Pass Details

Date: 24 January 2020
Orbit: 764 x 766 km, 98.1° (Epoch: 24 February)

Event Time Altitude Azimuth Distance (km) Brightness Sun altitude
Rises 05:22:12 0° 41° (NE) 3,215 6.5 -11.7°
Reaches altitude 10° 05:25:09 10° 59° (ENE) 2,292 6.0 -11.0°
Maximum altitude 05:28:36 19° 102° (ESE) 1,775 6.2 -10.2°
Drops below altitude 10° 05:32:03 10° 146° (SE) 2,299 6.4 -9.4°
Sets 05:35:00 0° 163° (SSE) 3,227 6.8 -8.7°
